Greenville/Spartanburg, SC

4:06 AM EST on November 19, 2017 (GMT -0500)
Greenville-Spartanburg International

Weather History for KGSP - April, 2013

Change the Weather History Date:

Thursday, April 4, 2013

  Actual Average Record
Temperature  
Mean Temperature 45 °F 58 °F  
Max Temperature 52 °F 70 °F 88 °F (1963)
Min Temperature 37 °F 45 °F 25 °F (1975)
Degree Days  
Heating Degree Days 20 8  
Month to date heating degree days 41 33  
Since 1 July heating degree days 2781 2866  
Cooling Degree Days 0 1  
Month to date cooling degree days 0 4  
Year to date cooling degree days 2 12  
Moisture  
Dew Point 33 °F    
Average Humidity 69    
Maximum Humidity 100    
Minimum Humidity 38    
Precipitation  
Precipitation 0.65 in 0.11 in 1.65 in (1941)
Month to date precipitation 0.67 0.47  
Year to date precipitation 13.34 12.78  
Snow  
Snow 0.00 in 0.00 in 0.00 in ()
Month to date snowfall 0.0 0.0  
Since 1 July snowfall 2.0 4.7  
Snow Depth 0.00 in    
Sea Level Pressure  
Sea Level Pressure 30.09 in    
Wind  
Wind Speed 12 mph (NNE)    
Max Wind Speed 23 mph    
Max Gust Speed 30 mph    
Visibility 8 miles    
Events Rain    
T = Trace of Precipitation, MM = Missing Value Source: NWS Daily Summary

Daily Weather History Graph

Daily Weather History Graph

Search for Another Location

Airport or City:

Trip Planner

Search our weather history database for the weather conditions in past years. The results will help you decide how hot, cold, wet, or windy it might be!

Date:

Astronomy

Apr. 04, 2013 Rise Set
Actual Time 7:11 AM EDT 7:52 PM EDT
Civil Twilight 6:45 AM EDT 8:18 PM EDT
Nautical Twilight 6:15 AM EDT 8:48 PM EDT
Astronomical Twilight 5:44 AM EDT 9:19 PM EDT
Moon 3:23 AM EDT (4/4) 2:22 PM EDT (4/4)
Length of Visible Light 13h 32m
Length of Day
12h 41m
Waning Crescent, 34% of the Moon is Illuminated
Apr 4
Waning Crescent
Apr 10
New
Apr 18
First Quarter
Apr 25
Full
May 2
Last Quarter

Hourly Weather History & Observations

Time (EDT) Temp. Windchill Dew Point Humidity Pressure Visibility Wind Dir Wind Speed Gust Speed Precip Events Conditions
12:53 AM 52.0 °F - 30.9 °F 45% 30.21 in 10.0 mi NE 4.6 mph - N/A   Scattered Clouds
1:53 AM 52.0 °F - 28.9 °F 41% 30.20 in 10.0 mi NE 5.8 mph - N/A   Scattered Clouds
2:53 AM 51.1 °F - 28.0 °F 41% 30.20 in 10.0 mi NE 5.8 mph - N/A   Overcast
3:53 AM 51.1 °F - 27.0 °F 39% 30.18 in 10.0 mi NE 5.8 mph - 0.00 in   Overcast
4:53 AM 50.0 °F - 28.0 °F 43% 30.19 in 10.0 mi NNE 9.2 mph - 0.00 in   Overcast
5:53 AM 46.9 °F - 30.0 °F 52% 30.20 in 10.0 mi NE 8.1 mph - 0.00 in Rain Light Rain
6:53 AM 46.0 °F 41.0 °F 28.9 °F 51% 30.19 in 10.0 mi NE 10.4 mph - 0.00 in   Overcast
7:53 AM 46.0 °F 39.6 °F 26.1 °F 46% 30.20 in 9.0 mi NE 15.0 mph - N/A   Overcast
8:53 AM 45.0 °F 37.6 °F 24.1 °F 44% 30.20 in 10.0 mi NE 17.3 mph 24.2 mph 0.00 in   Overcast
9:53 AM 45.0 °F 38.2 °F 23.0 °F 42% 30.19 in 10.0 mi NE 15.0 mph 19.6 mph N/A   Overcast
10:53 AM 44.1 °F 37.4 °F 25.0 °F 47% 30.17 in 10.0 mi NE 13.8 mph 23.0 mph 0.00 in Rain Light Rain
11:53 AM 41.0 °F 33.5 °F 30.9 °F 67% 30.18 in 10.0 mi NNE 13.8 mph 21.9 mph 0.00 in Rain Light Rain
12:53 PM 39.0 °F 32.3 °F 35.1 °F 86% 30.19 in 4.0 mi NE 10.4 mph - 0.10 in Rain Rain
1:53 PM 37.9 °F 28.9 °F 36.0 °F 93% 30.12 in 4.0 mi NNE 16.1 mph 24.2 mph 0.07 in Rain Light Rain
2:09 PM 37.4 °F 30.3 °F 35.6 °F 93% 30.11 in 4.0 mi NNE 10.4 mph 25.3 mph 0.01 in Rain Rain
2:40 PM 37.4 °F 27.8 °F 35.6 °F 93% 30.04 in 1.8 mi NNE 17.3 mph 27.6 mph 0.10 in Rain Heavy Rain
2:51 PM 37.4 °F 29.3 °F 35.6 °F 93% 30.08 in 3.0 mi North 12.7 mph 29.9 mph 0.13 in Rain Light Rain
2:53 PM 37.0 °F 28.9 °F 36.0 °F 96% 30.09 in 2.5 mi North 12.7 mph 29.9 mph 0.14 in Rain Light Rain
3:53 PM 37.0 °F 28.9 °F 36.0 °F 96% 30.09 in 2.5 mi NNE 12.7 mph - 0.09 in Rain Light Rain
4:16 PM 37.4 °F 29.8 °F 35.6 °F 93% 30.06 in 6.0 mi NNE 11.5 mph - 0.02 in   Overcast
4:19 PM 37.4 °F 28.5 °F 35.6 °F 93% 30.05 in 6.0 mi NNE 15.0 mph - 0.02 in Rain Light Rain
4:53 PM 37.9 °F 28.9 °F 36.0 °F 93% 30.04 in 7.0 mi NNE 16.1 mph 23.0 mph 0.06 in Rain Light Rain
5:53 PM 37.9 °F 29.6 °F 36.0 °F 93% 30.03 in 10.0 mi NNE 13.8 mph 21.9 mph 0.02 in Rain Light Rain
6:32 PM 37.4 °F 28.2 °F 35.6 °F 93% 30.02 in 1.8 mi NNE 16.1 mph - 0.11 in Rain Heavy Rain
6:41 PM 37.4 °F 30.3 °F 35.6 °F 93% 30.03 in 5.0 mi NNE 10.4 mph 21.9 mph 0.16 in Rain Light Rain
6:53 PM 37.9 °F 29.6 °F 37.0 °F 97% 30.02 in 5.0 mi NNE 13.8 mph - 0.16 in Rain Light Rain
7:53 PM 37.9 °F 30.0 °F 36.0 °F 93% 30.01 in 10.0 mi NNE 12.7 mph - 0.01 in   Overcast
8:01 PM 37.4 °F 28.2 °F 35.6 °F 93% 30.00 in 10.0 mi NNE 16.1 mph 21.9 mph N/A   Overcast
8:53 PM 37.9 °F 29.6 °F 36.0 °F 93% 30.00 in 10.0 mi NNE 13.8 mph - N/A   Overcast
9:19 PM 37.4 °F 29.8 °F 35.6 °F 93% 29.99 in 10.0 mi NNE 11.5 mph - N/A   Overcast
9:29 PM 37.4 °F 28.9 °F 35.6 °F 93% 29.99 in 10.0 mi NNE 13.8 mph - N/A   Overcast
9:53 PM 37.9 °F 30.0 °F 36.0 °F 93% 30.00 in 10.0 mi NNE 12.7 mph - N/A   Overcast
10:35 PM 37.4 °F 29.3 °F 37.4 °F 100% 29.99 in 10.0 mi NNE 12.7 mph - N/A   Overcast
10:53 PM 37.9 °F 31.5 °F 37.0 °F 97% 29.99 in 9.0 mi NNE 9.2 mph - N/A   Overcast
11:50 PM 39.2 °F 33.0 °F 37.4 °F 93% 29.97 in 10.0 mi NE 9.2 mph - N/A   Overcast
11:53 PM 39.0 °F 32.8 °F 37.0 °F 93% 29.98 in 10.0 mi NE 9.2 mph - N/A   Overcast